sat.trackr.live / text

‹ back to catalog

STARLINK-4471

NORAD 53664 · 2022-105S

PAYLOAD ACTIVE UNKNOWN

§ Identity

Operator
Country
US
Launch date
2022-08-31
Launch site
AFWTR
Launch vehicle
Mass (kg)
RCS (m²)

Purposes: comms

External: N2YO · Heavens-Above · Gunter

§ Orbital elements

Epoch: 2026-05-25T05:14:30.471072Z

Period
95.65 min
Inclination
97.4491°
Eccentricity
0.0001791
Mean motion
15.05533529 rev/d
Perigee alt
548.6 km
Apogee alt
551.1 km
Semi-major
6,928.0 km
B*
1.6642e-3
RAAN
26.2306°
Arg perigee
117.2534°
Mean anomaly
242.8876°
Rev number
20,481

§ Raw data

STARLINK-44711 53664U 22105S   26145.21840823  .00023959  00000+0  16642-2 0  99982 53664  97.4491  26.2306 0001791 117.2534 242.8876 15.05533529204810

JSON: /api/v1/satellites/53664 · /tle

For live sub-satellite position, see the globe view (requires WebGL).

§ Visibility from observer

Set your observer location to see the next 7 days of passes ≥ 10°. The values pass through the URL so the page stays shareable.

No JS? Fill the form by hand. The geolocation button needs JavaScript.